Location: Shenandoah County Park
(38.9356°N, 78.4524°W)
Time: 09:25:30
(UTC-04:00)

Vanguard 1 Rocket - Pass Details

Date: 10 February 2023
Orbit: 652 x 4223 km, 34.3° (Epoch: 24 March)

Event Time Altitude Azimuth Distance (km) Brightness Sun altitude
Rises 16:14:33 0° 280° (W) 5,544 12.2 15.1°
Reaches altitude 10° 16:17:42 10° 275° (W) 4,927 12.1 14.6°
Maximum altitude 16:32:19 48° 207° (SSW) 4,085 11.5 12.2°
Drops below altitude 10° 16:55:22 10° 143° (SE) 7,412 11.9 8.2°
Sets 17:01:42 0° 138° (SE) 8,434 12.1 7.1°
